Regional Weather Roundup
Issued by NWS Sioux Falls, SD

Home | Current Version | Previous Version | Text Only | Print | Product List | Glossary On
Versions: 1 2 3 4 5 6 7 8 9 10 11 12 13 14 15 16 17 18 19 20 21 22 23 24 25 26 27 28 29 30 31 32 33 34 35 36 37 38 39 40 41 42 43 44 45 46 47 48 49 50
000
ASUS43 KFSD 080010
RWRFSD

WEATHER ROUNDUP FOR SE SOUTH DAKOTA/SW MINNESOTA/NW IOWA
NATIONAL WEATHER SERVICE SIOUX FALLS SD
700 PM CDT TUE JUL 07 2015

NOTE: "FAIR" INDICATES FEW OR NO CLOUDS BELOW 12,000 FEET WITH NO
SIGNIFICANT WEATHER AND OR OBSTRUCTIONS TO VISIBILITY.


SDZ038>040-050-052>070-080100-
SOUTHEAST SOUTH DAKOTA

CITY           SKY/WX    TMP DP  RH WIND       PRES   REMARKS
BROOKINGS      MOSUNNY   66  46  48 S6        30.13F
CHAMBERLAIN    PTSUNNY   67  56  67 SE8       30.08F
6HR MIN TEMP:  67; 6HR MAX TEMP:  71;

HURON          PTSUNNY   68  45  43 SE8       30.08F
6HR MIN TEMP:  66; 6HR MAX TEMP:  72;

MADISON        FAIR      64  48  55 S5        30.12F
MITCHELL       MOSUNNY   69  50  50 SE7       30.09F
6HR MIN TEMP:  67; 6HR MAX TEMP:  72;

SIOUX FALLS    PTSUNNY   68  51  54 E9        30.11F
6HR MIN TEMP:  65; 6HR MAX TEMP:  71;

WINNER         FAIR      73  54  51 SE9       30.07F
YANKTON        MOSUNNY   68  50  52 E6        30.09S
$$

MNZ071-072-080-081-089-090-097-098-080100-
SOUTHWEST MINNESOTA

CITY           SKY/WX    TMP DP  RH WIND       PRES   REMARKS
FAIRMONT       SUNNY     66  46  48 NE7       30.11S
JACKSON        SUNNY     66  50  55 NE7       30.12F
LUVERNE        SUNNY     70  48  46 NE8       30.12F
MARSHALL       MOSUNNY   68  46  45 NE7       30.11F
6HR MIN TEMP:  63; 6HR MAX TEMP:  68;

MONTEVIDEO     MOSUNNY   72  52  49 S3        30.13F
PIPESTONE      MOSUNNY   68  46  45 E3        30.13S
REDWOOD FALLS  SUNNY     70  49  47 NE3       30.11F
TRACY          SUNNY     68  50  53 NE6       30.13S
WINDOM         SUNNY     66  48  52 NE6       30.12F
WORTHINGTON    SUNNY     66  48  52 NE9       30.12F
$$

IAZ001>003-012>014-020>022-031-032-NEZ013-014-SDZ071-080100-
NORTHWEST IOWA

CITY           SKY/WX    TMP DP  RH WIND       PRES   REMARKS
CHEROKEE       PTSUNNY   68  51  56 E6        30.11S
DENISON        SUNNY     68  52  56 NE9       30.08S
ESTHERVILLE    MOSUNNY   66  51  58 NE9       30.11F
LE MARS        SUNNY     70  50  49 VRB7      30.11S
ORANGE CITY    SUNNY     68  48  49 NE5       30.11S
SHELDON        SUNNY     66  50  55 NE8       30.10S
SIOUX CITY     SUNNY     71  49  45 NE6       30.10S
6HR MIN TEMP:  68; 6HR MAX TEMP:  73;

SPENCER        SUNNY     69  49  48 NE9       30.11F
6HR MIN TEMP:  67; 6HR MAX TEMP:  71;

STORM LAKE     MOSUNNY   64  52  63 E8        30.11F
$$

ABBREVIATIONS USED IN REMARKS
   TC - TEMPERATURE IN CELSIUS
  WCI - WIND CHILL INDEX
   HX - HEAT INDEX
  VSB - VISIBILITY



USA.gov is the U.S. government's official web portal to all federal, state and local government web resources and services.